This is the latest recevied weather packets stored in our database for station/object KI6SYE. If no packets are shown the sender has not sent any weather packets the latest 1 day(s).
| Time | Temp. | Humidity | Pressure | Rain* | Wind** | Luminosity | Snow |
|---|---|---|---|---|---|---|---|
| 1778014611 | 17.78° C | 67% | 1015 hPa | 0 mm | 2.68 m/s, 226° | 747 W/m² | - |
| 1778014308 | 17.22° C | 69% | 1015.1 hPa | 0 mm | 3.13 m/s, 314° | 776 W/m² | - |
| 1778014005 | 17.22° C | 70% | 1015 hPa | 0 mm | 1.34 m/s, 259° | 594 W/m² | - |
| 1778013703 | 17.22° C | 69% | 1015.1 hPa | 0 mm | 4.02 m/s, 231° | 410 W/m² | - |
| 1778013400 | 17.22° C | 69% | 1015.1 hPa | 0 mm | 4.02 m/s, 259° | 479 W/m² | - |
| 1778013096 | 17.22° C | 69% | 1015 hPa | 0 mm | 1.79 m/s, 264° | 419 W/m² | - |
| 1778012792 | 17.22° C | 68% | 1015.1 hPa | 0 mm | 1.79 m/s, 237° | 388 W/m² | - |
| 1778012488 | 16.67° C | 69% | 1014.9 hPa | 0 mm | 3.58 m/s, 229° | 436 W/m² | - |
| 1778012185 | 16.67° C | 70% | 1014.9 hPa | 0 mm | 3.13 m/s, 260° | 383 W/m² | - |
| 1778011883 | 16.67° C | 69% | 1015.1 hPa | 0 mm | 2.24 m/s, 244° | 406 W/m² | - |
| 1778011581 | 17.22° C | 69% | 1015 hPa | 0 mm | 1.34 m/s, 248° | 406 W/m² | - |
| 1778011277 | 17.22° C | 68% | 1015 hPa | 0 mm | 3.13 m/s, 285° | 542 W/m² | - |
| 1778010973 | 16.67° C | 68% | 1015 hPa | 0 mm | 2.68 m/s, 247° | 708 W/m² | - |
| 1778010671 | 17.22° C | 68% | 1015.3 hPa | 0 mm | 2.68 m/s, 274° | 431 W/m² | - |
| 1778010368 | 17.78° C | 69% | 1015 hPa | 0 mm | 1.79 m/s, 216° | 971 W/m² | - |
| 1778010063 | 17.22° C | 71% | 1015.3 hPa | 0 mm | 1.79 m/s, 269° | 886 W/m² | - |
| 1778009761 | 16.67° C | 71% | 1015.2 hPa | 0 mm | 2.24 m/s, 257° | 869 W/m² | - |
| 1778009458 | 17.22° C | 70% | 1015.4 hPa | 0 mm | 2.68 m/s, 209° | 866 W/m² | - |
| 1778009157 | 16.67° C | 71% | 1015.2 hPa | 0 mm | 1.79 m/s, 312° | 713 W/m² | - |
| 1778008853 | 16.67° C | 73% | 1015.4 hPa | 0 mm | 2.68 m/s, 291° | 440 W/m² | - |
| 1778008552 | 16.67° C | 71% | 1015.3 hPa | 0 mm | 4.92 m/s, 257° | 560 W/m² | - |
| 1778008249 | 16.67° C | 72% | 1015.3 hPa | 0 mm | 1.79 m/s, 250° | 733 W/m² | - |
| 1778007943 | 16.11° C | 74% | 1015.3 hPa | 0 mm | 3.13 m/s, 303° | 577 W/m² | - |
| 1778007640 | 16.67° C | 72% | 1015.4 hPa | 0 mm | 2.68 m/s, 260° | 837 W/m² | - |
| 1778007337 | 16.67° C | 70% | 1015.2 hPa | 0 mm | 2.24 m/s, 262° | 689 W/m² | - |
* Rain latest hour (hover to see other rain measurements)
** Current wind speed in m/s (hover to see current wind gust speed)